Regional Weather Roundup
Issued by NWS

Home | Current Version | Previous Version | Graphics & Text | Print | Product List | Glossary Off
Versions: 1 2 3 4 5 6 7 8 9 10 11 12 13 14 15 16 17 18 19 20 21 22 23 24 25 26 27 28 29 30 31 32 33 34 35 36 37 38 39 40 41 42 43 44 45 46 47 48 49 50

000
ASUS43 KMKX 200321
RWRWI

WISCONSIN REGIONAL WEATHER ROUNDUP
NATIONAL WEATHER SERVICE MILWAUKEE/SULLIVAN WI
1000 PM CDT SUN OCT 19 2014

NOTE: "FAIR" INDICATES FEW OR NO CLOUDS BELOW 12,000 FEET WITH NO
SIGNIFICANT WEATHER AND/OR OBSTRUCTIONS TO VISIBILITY.

WIZ001-002-006>008-014>016-023>028-200400-
NORTHWEST WISCONSIN

CITY           SKY/WX    TMP DP  RH WIND       PRES   REMARKS
SUPERIOR ARPT  MOCLDY    56  43  61 N7G17     29.79R
ASHLAND        CLOUDY    51  44  77 W6        29.76R
HAYWARD        PTCLDY    42  40  92 CALM      29.78R
SIREN          CLEAR     52  42  67 NW6       29.80R
CUMBERLAND     CLEAR     50  43  76 NW12      29.78R
RICE LAKE      CLOUDY    43  42  94 CALM      29.78S
CHETEK         MOCLDY    42  42  98 CALM      29.77S
LADYSMITH      CLEAR     42  40  93 CALM      29.78S
EAU CLAIRE     CLEAR     45  43  93 SW5       29.76S
MENOMONIE      CLEAR     47  43  88 CALM      29.78S
NEW RICHMOND   CLEAR     53  42  66 NW7       29.81R
OSCEOLA        CLEAR     57  43  59 NW7       29.83R
$$

WIZ003>005-009-010-017-018-200400-
NORTH CENTRAL WISCONSIN

CITY           SKY/WX    TMP DP  RH WIND       PRES   REMARKS
MANITOWISH WTR CLOUDY    41  41 100 CALM      29.75S
ARBOR VITAE    PTCLDY    42  39  91 CALM      29.75F
WOODRUFF       PTCLDY    42  39  91 CALM      29.75F
RHINELANDER    CLEAR     43  41  93 W3        29.76F
EAGLE RIVER    CLOUDY    43  43 100 CALM      29.75S
LAND O LAKES   CLOUDY    46  43  87 CALM      29.75F
PHILLIPS       PTCLDY    39  37  94 CALM      29.75F
TOMAHAWK       CLEAR     37  36  95 CALM      29.77F
MEDFORD        CLEAR     41  40  96 S3        29.77F
MERRILL        CLEAR     38  38 100 CALM      29.76F FOG
$$

WIZ029-030-035-036-043>047-200400-
CENTRAL WISCONSIN

CITY           SKY/WX    TMP DP  RH WIND       PRES   REMARKS
WAUSAU         CLEAR     46  42  86 CALM      29.76F
MOSINEE        CLEAR     45  43  93 S3        29.78F
MARSHFIELD     CLEAR     49  43  80 SW6       29.77F
STEVENS POINT  CLEAR     45  41  87 SW6       29.79S
WAUPACA        PTCLDY    51  44  78 S6        29.79F
WAUTOMA        CLOUDY    51  43  74 SW5       29.80F
WISC RAPIDS    CLEAR     49  43  80 SW5       29.80S
CAMP DOUGLAS   CLEAR     54  47  75 SW7       29.79F
$$

WIZ011>013-019>022-031-037>040-048>050-200400-
NORTHEAST WISCONSIN

CITY           SKY/WX    TMP DP  RH WIND       PRES   REMARKS
ANTIGO         CLEAR     39  39  99 CALM      29.78S
SHAWANO        PTCLDY    50  44  78 CALM      29.78F
OCONTO         CLOUDY    51  44  77 SW5       29.78F
STURGEON BAY   CLOUDY    50  43  76 S9        29.79F
GREEN BAY      PTCLDY    50  44  80 S6        29.79F
MANITOWOC      CLOUDY    52  45  77 S7        29.82F
APPLETON       MOCLDY    48  43  81 S10       29.80F
CLINTONVILLE   MOCLDY    46  43  87 CALM      29.78F
OSHKOSH        PTCLDY    51  43  74 S12       29.80F
$$

WIZ032>034-041-042-053>061-200400-
SOUTHWEST WISCONSIN

CITY           SKY/WX    TMP DP  RH WIND       PRES   REMARKS
LA CROSSE      CLEAR     58  46  64 SE10      29.79S
SPARTA         CLEAR     52  43  70 S3        29.81S
VIROQUA        CLEAR     52  45  77 SW6       29.81F
BOSCOBEL       CLEAR     53  43  68 SW7       29.84F
PRAIRIE DU CHI CLEAR     56  43  62 CALM      29.84F
PLATTEVILLE    CLEAR     48  43  81 CALM      29.87F
$$

WIZ056-057-062-063-064-067-068-200400-
SOUTH CENTRAL WISCONSIN

CITY           SKY/WX    TMP DP  RH WIND       PRES   REMARKS
REEDSBURG      PTCLDY    53  44  70 SW9       29.81F
BARABOO/DELLS  PTCLDY    53  41  65 SW10G18   29.81F
LONE ROCK      CLEAR     48  40  73 CALM      29.84F
MINERAL POINT  CLEAR     50  43  76 S8        29.85F
MADISON        PTCLDY    53  42  66 SW7       29.85F
MIDDLETON      PTCLDY    53  41  65 SW9       29.85F
WATERTOWN      CLOUDY    49  43  79 S6        29.85F
MONROE         PTCLDY    50  43  76 SW15      29.87F
JANESVILLE     MOCLDY    52  41  66 SW9       29.89F
$$

WIZ051-052-058>065-066-070>072-200400-
SOUTHEAST WISCONSIN

CITY           SKY/WX    TMP DP  RH WIND       PRES   REMARKS
MILWAUKEE      LGT RAIN  51  41  68 SW14      29.88F
WAUKESHA       MOCLDY    48  41  76 SW10G16   29.87F
MILWAUKEE/TIMM CLOUDY    50  41  71 SW13      29.87F
RACINE         CLOUDY    51  42  71 SW10      29.90F
BURLINGTON     CLOUDY    50  42  72 SW12      29.89F
KENOSHA        MOCLDY    51  43  74 SW9       29.90F
FOND DU LAC    MOCLDY    52  41  66 SW13      29.82F
SHEBOYGAN      LGT RAIN  51  44  77 SW12      29.83F
WEST BEND      RAIN      52  39  62 SW10      29.84F
JUNEAU         CLOUDY    50  42  74 S12       29.85F
$$

LSZ147-162-200400-
LAKE SUPERIOR

STATION/POSITION TIME  TEMP    WIND        PRES    WAVE
                       AIR SEA DIR/SP/G            HT/PER
                 (UTC) (F)     (DEG/KT/KT) (MB)    (FT/S)
W MID LAKE BUOY  0250   47 46   60/  4/  4 1007.3R   1/ 4
DEVILS ISLAND    0300   53     330/  9/ 11 1007.7R
PORT WING        0200   54     280/ 10/ 13 1007.8R
SAXON HARBOR     0200   52     200/  6/  9 1006.8S
$$

LMZ867-665-643>646-200400-
LAKE MICHIGAN

STATION/POSITION TIME  TEMP    WIND        PRES    WAVE
                       AIR SEA DIR/SP/G            HT/PER
                 (UTC) (F)     (DEG/KT/KT) (MB)    (FT/S)
CHAMBERS ISLAND  0200   53     190/  7/ 13 1009.1F
N MID LAKE BUOY  0250   52 52  210/ 19/ 23 1008.5F   7/ 8
NORTHPORT PIER   0200   52     170/  5/  9 1009.1F
KEWAUNEE LAKESHO 0300   50     190/  7/  9 1008.5F
SHEBOYGAN LAKESH 0300   52 50  200/ 10/ 13 1010.8F
PORT WASHINGTON  0200   53     210/  7/ 10 1011.9F
ATWATER BUOY     0300   53     210/ 12/ 16 1012.3F
MILWAUKEE LAKESH 0300   53     230/ 11/ 13   N/A
S MID LAKE BUOY  0250   54 55  210/ 21/ 23 1012.7R   5/ 6
KENOSHA   LAKESH 0300   53     210/ 10/ 15 1012.5F
$$

TC  - TEMPERATURE IN CELSIUS
VSB - VISIBILITY IN STATUTE MILES
WCI - WIND CHILL INDEX
HX  - HEAT INDEX




USA.gov is the U.S. government's official web portal to all federal, state and local government web resources and services.